SCP
0 0 0 0 0 0 0 0 0 0 0 0 0 0 0 0 0 0 0 0 0 0 0 0 0 0 0 0 0 0 0 0 0 0 0 0 0 0 0 -0 -0 0 0 0
0 0 0 0 0 -0 -0 -0 0 0 0 0 0 0 0 0 0 0 0 0 0 0 0 0 0 0 0 0 0 0 0 0 0 0 0 0 0 0 0 0 0 0 0 0
0 0 0 0 0 -0 -0 -0 0 0 0 0 0 0 0 0 0 0 0 0 0 0 0 0 0 0 0 0 0 0 0 0 0 0 0 0 0 0 0 0 0 0 0 0
0 0 0 0 0 0 -0 -0 0 0 0 0 0 0 0 0 0 0 0 0 0 0 0 0 0 0 0 0 0 0 0 0 0 0 0 0 0 0 0 0 0 0 0 0
0 0 0 0 0 0 0 0 0 0 0 0 0 0 0 0 0 0 0 0 0 0 0 0 0 0 0 0 0 0 0 0 0 0 0 0 0 0 0 0 0 0 0 0
0 0 0 0 0 -0 -0 0 0 0 0 0 0 0 0 0 0 0 0 0 0 0 0 0 0 0 0 0 0 0 0 0 0 0 0 0 0 0 0 0 0 0 0 0
0 0 0 0 0 -0 -0 0 0 0 0 0 0 0 0 0 0 0 0 0 0 0 0 0 0 0 0 0 0 0 0 0 0 0 0 0 0 0 0 0 0 0 0 0
0 0 0 0 0 -0 -0 0 0 0 0 0 0 0 0 0 0 0 0 0 0 0 0 0 0 0 0 0 0 0 0 0 0 0 0 0 0 0 0 0 0 0 0 0
0 0 0 0 0 -0 -0 0 0 0 0 0 0 0 0 0 0 0 0 0 0 0 0 0 0 0 0 0 0 0 0 0 0 0 0 0 0 0 0 0 0 0 0 0
0 0 0 0 0 -0 0 0 0 0 0 0 0 0 0 0 0 0 0 0 0 0 0 0 0 0 0 0 0 0 0 0 0 0 0 0 0 0 0 0 0 0 0 0
0 0 0 0 0 0 0 0 0 0 0 0 0 0 0 0 0 0 0 0 0 0 0 0 0 0 0 0 0 0 0 0 0 0 0 0 0 0 0 0 0 0 0 0
0 0 0 0 0 0 0 0 0 0 0 0 0 0 0 0 0 0 0 0 0 0 0 0 0 0 0 0 0 0 0 0 0 0 0 0 0 0 0 0 0 0 0 0
0 0 0 0 0 0 0 0 0 0 0 0 0 0 0 0 0 0 0 0 0 0 0 0 0 0 0 0 0 0 0 0 0 0 0 0 0 0 0 0 0 0 0 0
0 0 0 0 0 0 0 0 0 0 0 0 0 0 0 0 0 0 0 0 0 0 0 0 0 0 0 0 0 0 0 0 0 0 0 0 0 0 0 0 0 0 0 0
0 0 0 0 0 0 0 0 0 0 0 0 0 0 0 0 0 0 0 0 0 0 0 0 0 0 0 0 0 0 0 0 0 0 0 0 0 0 0 0 0 0 0 0
0 0 0 0 0 0 0 0 0 0 0 0 0 0 0 0 0 0 0 0 0 0 0 0 0 0 0 0 0 0 0 0 0 0 0 0 0 0 0 0 0 0 0 0
0 0 0 0 0 0 0 0 0 0 0 0 0 0 0 0 0 0 0 0 0 0 0 0 0 0 0 0 0 0 0 0 0 0 0 0 0 0 0 0 0 0 0 0
0 0 0 0 0 0 0 0 0 0 0 0 0 0 0 0 0 0 0 0 0 0 0 0 0 0 0 0 0 0 0 0 0 0 0 0 0 0 0 0 0 0 0 0
0 0 0 0 0 0 0 0 0 0 0 0 0 0 0 0 0 0 0 0 0 0 0 0 0 0 0 0 0 0 0 0 0 0 0 0 0 0 0 0 0 0 0 0
0 0 0 0 0 0 0 0 0 0 0 0 0 0 0 0 0 0 0 0 0 0 0 0 0 0 0 0 0 0 0 0 0 0 0 0 0 0 0 0 0 0 0 0
0 0 0 0 0 0 0 0 0 0 0 0 0 0 0 0 0 0 0 0 0 0 0 0 0 0 0 0 0 0 0 0 0 0 0 0 0 0 0 0 0 0 0 0
0 0 0 0 0 0 0 0 0 0 0 0 0 0 0 0 0 0 0 0 0 0 0 0 0 0 0 0 0 0 0 0 0 0 0 0 0 0 0 0 0 0 0 0
0 0 0 0 0 0 0 0 0 0 0 0 0 0 0 0 0 0 0 0 0 0 0 0 0 0 0 0 0 0 0 0 0 0 0 0 0 0 0 0 0 0 0 0
0 0 0 0 0 0 0 0 0 0 0 0 0 0 0 0 0 0 0 0 0 0 0 0 0 0 0 0 0 0 0 0 0 0 0 0 0 0 0 0 0 0 0 0
0 0 0 0 0 0 0 0 0 0 0 0 0 0 0 0 0 0 0 0 0 0 0 0 0 0 0 0 0 0 0 0 0 0 0 0 0 0 0 0 0 0 0 0
0 0 0 0 0 0 0 0 0 0 0 0 0 0 0 0 0 0 0 0 0 0 0 0 0 0 0 0 0 0 0 0 0 0 0 0 0 0 0 0 0 0 0 0
Wind_Speed
3 5 6 7 8 6 5 7 7 6 2 5 7 8 7 5 5 5 5 5 4 3 1 0 1 2 2 3 3 2 2 2 1 1 0 0 0 0 0 1 2 1 1 1
5 7 6 4 5 5 7 8 7 4 2 4 6 9 7 6 6 6 5 5 4 3 1 1 1 2 2 3 3 3 3 2 1 1 0 1 1 1 1 1 1 2 1 1
7 1 3 5 5 6 8 9 8 5 2 4 5 8 6 3 3 3 4 4 3 2 2 1 1 1 2 2 3 2 3 2 2 1 0 0 1 1 1 1 1 2 1 1
5 3 4 6 6 6 8 5 6 6 5 4 4 6 5 4 3 3 3 2 1 1 1 0 1 2 2 2 2 2 2 2 2 1 1 1 1 1 1 1 1 1 1 1
4 3 5 6 5 6 4 2 4 5 6 4 5 6 5 4 5 4 3 2 1 0 0 0 1 1 1 2 2 2 2 2 2 1 1 1 1 1 1 1 1 1 1 1
4 2 3 4 2 4 4 4 3 3 4 6 6 8 5 3 4 3 2 1 1 0 0 0 1 1 1 1 2 2 2 2 2 2 1 2 2 2 2 2 2 2 1 1
3 3 1 2 3 4 5 4 3 4 5 5 3 7 6 1 2 3 3 1 0 0 0 0 1 2 2 2 2 2 2 2 2 2 2 2 2 2 3 3 3 2 2 2
3 3 3 3 3 4 6 5 4 4 4 2 4 7 3 1 0 2 2 1 0 0 1 1 2 2 2 2 2 2 3 3 3 2 3 2 2 2 2 3 3 3 3 3
3 2 2 1 2 3 5 6 2 2 1 4 5 4 3 2 2 2 2 1 1 1 2 2 2 3 3 3 3 3 3 3 3 3 3 3 3 3 3 3 3 3 3 3
2 3 2 1 2 1 2 3 3 4 4 5 5 6 4 4 5 4 3 2 1 2 3 3 3 3 3 3 3 3 3 3 3 3 3 3 3 3 3 3 3 4 4 4
2 3 2 3 5 5 5 5 4 3 3 4 4 3 0 3 4 4 3 2 2 3 3 3 3 4 4 3 3 3 3 3 3 3 3 3 3 3 3 3 4 4 4 4
2 2 3 4 0 2 4 5 6 4 4 4 4 3 2 2 2 3 3 3 3 3 3 3 3 4 3 3 3 3 3 3 3 3 3 3 3 3 4 4 4 4 4 4
3 3 2 3 3 2 3 3 4 3 2 5 6 4 2 1 2 3 4 4 3 3 3 3 3 3 3 3 3 3 3 3 3 2 2 2 3 3 3 3 4 4 4 4
2 3 5 6 3 2 4 4 5 5 5 6 9 9 6 5 5 4 4 4 4 4 4 3 4 4 4 4 3 3 2 2 2 2 2 2 2 2 3 3 3 3 3 3
2 3 4 6 5 4 5 7 8 9 9 9 9 9 10 8 6 5 5 4 4 4 4 4 4 4 4 3 3 3 3 2 2 2 2 2 2 2 2 2 2 2 2 3
1 3 3 5 5 5 7 9 10 11 11 11 11 12 7 6 5 5 4 4 5 5 5 5 4 4 4 4 3 3 3 3 2 2 2 2 2 2 2 2 2 2 2 2
3 3 3 4 3 3 7 7 9 8 8 8 10 9 6 6 6 6 5 5 5 5 5 5 4 4 4 4 4 3 3 3 2 2 2 2 2 2 1 2 2 2 2 2
4 3 2 2 2 7 2 1 4 7 7 7 8 7 6 6 6 6 5 5 5 5 5 5 4 4 4 4 3 3 3 2 2 2 2 2 2 2 1 1 1 2 2 2
4 4 3 2 4 6 3 1 2 5 5 5 7 7 5 5 5 4 2 3 5 5 5 5 4 4 4 3 3 2 2 2 2 2 2 3 2 2 1 1 2 2 2 2
0 3 3 3 5 6 2 1 0 3 5 1 4 5 4 4 4 3 3 5 5 4 3 3 3 3 3 3 2 1 1 2 2 3 3 3 2 2 2 2 2 2 2 2
1 2 4 5 5 5 2 1 3 4 3 2 3 4 4 5 5 5 6 5 4 3 3 3 2 2 2 2 1 1 2 3 3 3 2 2 2 2 2 1 1 2 1 2
4 3 4 4 5 5 1 2 3 3 4 3 4 4 5 5 5 5 5 4 4 3 3 2 2 2 2 1 1 1 2 3 3 2 2 2 3 2 2 1 1 1 1 2
5 4 3 5 4 2 1 2 2 3 4 4 4 4 4 5 5 5 4 4 3 3 2 2 2 1 2 1 1 2 2 2 2 2 2 2 2 2 2 2 2 1 1 1
3 2 3 5 5 4 4 4 4 4 5 5 4 4 4 4 4 4 3 3 2 2 2 2 1 1 2 2 2 2 2 2 2 2 2 2 2 2 2 2 2 1 1 1
3 3 4 6 6 5 4 4 5 5 5 5 5 4 4 4 4 3 3 3 2 2 2 1 1 2 2 2 2 2 2 2 1 1 2 2 2 2 2 2 2 2 2 2
4 5 5 5 3 4 5 5 5 5 5 5 5 4 3 3 3 3 3 2 2 2 1 2 2 2 2 2 2 2 2 1 1 1 1 1 2 2 2 2 2 3 3 4
Wind_Direction
176 209 216 215 222 253 234 231 250 252 219 234 243 254 259 257 247 242 237 234 232 232 232 310 344 3 9 14 12 11 1 9 18 20 341 202 250 308 324 3 15 360 2 4
189 227 237 225 213 222 222 232 250 264 187 236 259 266 265 248 241 240 236 227 226 233 249 342 357 8 6 5 3 1 356 357 355 344 322 281 269 269 290 358 6 350 345 337
216 244 197 195 200 222 230 233 246 264 264 221 260 258 229 210 221 228 228 224 225 233 250 306 349 354 351 354 351 349 347 343 342 331 304 138 194 235 289 335 335 340 328 296
235 245 202 208 221 227 245 231 232 242 239 233 231 267 231 206 215 208 207 208 230 237 247 289 341 348 344 340 341 345 349 347 346 323 241 206 215 237 274 293 294 303 305 276
224 222 210 220 229 221 239 165 198 229 233 250 220 248 248 187 223 219 212 214 229 225 208 291 342 332 326 340 342 344 359 355 346 324 276 228 228 244 262 262 271 276 284 287
256 245 244 242 226 198 161 139 144 194 217 238 220 229 255 202 221 211 209 212 203 197 180 353 360 335 329 343 346 348 348 343 336 318 294 258 236 236 241 249 253 257 262 262
235 206 193 209 178 170 187 184 211 208 212 231 174 226 254 247 226 212 208 212 218 29 334 327 342 331 325 326 328 323 314 313 314 306 298 285 272 257 244 245 245 251 251 251
235 220 181 192 210 199 198 212 229 246 238 222 187 231 247 21 243 207 195 213 289 302 337 323 318 314 305 299 301 297 290 292 296 294 294 289 285 276 264 259 254 251 252 250
238 235 130 193 257 208 193 209 252 267 263 253 227 233 244 211 198 191 191 217 289 303 317 323 323 313 307 293 285 279 276 279 284 283 281 279 273 268 269 267 264 261 260 252
236 252 236 203 191 210 252 167 179 210 231 245 233 231 223 195 206 202 213 236 267 301 310 316 317 310 311 294 281 278 268 267 275 275 273 276 272 268 266 266 263 260 262 259
236 228 219 199 211 202 176 189 209 210 249 256 253 226 94 228 214 211 226 250 274 292 298 303 311 313 311 298 283 277 272 272 274 274 274 276 275 270 266 264 264 265 262 257
211 230 243 236 253 304 229 217 205 223 221 230 261 269 69 241 218 237 257 272 283 290 295 299 306 311 308 301 295 284 277 277 283 283 281 283 283 275 268 266 266 265 261 256
171 191 233 207 186 187 219 218 221 229 241 225 237 252 105 210 254 268 275 283 285 287 297 303 309 312 312 309 302 290 283 284 286 282 283 290 291 284 280 280 273 266 262 259
176 205 233 254 281 186 220 221 211 207 227 236 238 258 269 276 280 282 279 278 287 291 294 303 309 312 314 311 305 301 299 300 299 302 301 294 295 291 284 283 279 272 262 256
185 223 233 260 268 249 244 241 221 217 230 243 256 262 274 278 281 280 276 276 283 287 294 299 302 308 312 312 309 305 309 312 307 303 306 302 303 300 294 290 288 290 276 264
181 219 228 256 248 249 262 257 241 239 241 246 260 269 284 287 285 279 274 270 274 282 290 294 295 301 305 306 302 300 303 306 299 292 296 302 301 298 296 299 298 298 297 283
191 198 233 257 274 257 256 248 233 232 233 234 247 262 289 286 282 277 278 273 279 284 290 290 290 293 297 301 297 294 298 300 293 296 305 308 304 301 305 313 315 320 315 303
192 199 225 259 242 245 270 72 230 232 245 239 253 274 281 285 289 282 273 268 279 291 293 290 289 296 300 303 301 301 304 306 307 319 319 320 325 336 347 340 339 333 322 314
218 198 201 220 248 267 272 237 218 228 254 239 251 274 301 311 286 269 266 275 283 286 285 284 283 289 295 298 296 296 299 312 328 325 317 322 325 331 336 334 329 321 320 322
173 192 202 216 243 255 316 33 270 216 253 230 246 267 289 293 278 298 323 306 300 292 286 288 288 291 294 302 293 283 304 319 325 322 316 321 324 324 319 316 311 318 320 324
190 200 215 227 243 263 329 37 179 228 302 0 267 270 264 268 286 307 310 308 304 296 297 298 293 297 301 301 283 287 315 318 322 324 332 331 330 328 318 317 321 329 336 338
213 203 207 210 227 253 96 148 215 293 326 291 283 279 275 288 296 296 300 306 308 310 313 309 305 318 326 316 286 295 311 321 324 334 347 343 341 342 340 334 334 335 336 333
227 234 233 223 243 328 187 232 280 301 289 296 297 294 287 289 291 294 297 300 300 306 314 314 306 328 341 327 307 306 322 330 333 343 345 346 347 349 348 341 338 337 334 331
236 249 239 257 265 274 267 268 286 295 293 302 302 296 284 284 288 295 295 297 302 307 321 322 316 331 332 330 320 313 317 320 319 327 336 342 342 347 352 351 348 346 336 327
259 218 238 257 276 291 264 274 291 295 293 293 297 287 277 275 276 280 281 284 288 291 308 301 290 300 312 321 320 318 314 313 318 325 332 338 338 332 344 354 358 344 346 333
228 224 233 257 266 267 287 293 289 283 284 285 289 289 281 261 260 268 269 273 272 275 296 299 298 306 313 318 323 323 319 306 308 322 332 340 339 337 336 336 354 19 358 358